TimePST,TemperatureF,Dew PointF,Humidity,Sea Level PressureIn,VisibilityMPH,Wind Direction,Wind SpeedMPH,Gust SpeedMPH,PrecipitationIn,Events,Conditions,WindDirDegrees,DateUTC
12:03 AM,39.2,37.4,93,29.76,0.8,Calm,Calm,-,N/A,,Mostly Cloudy,0,2013-12-20 08:03:00
12:16 AM,39.2,37.4,93,29.76,1.2,NW,3.5,-,N/A,,Mostly Cloudy,320,2013-12-20 08:16:00
12:19 AM,39.2,37.4,93,29.76,3.0,Calm,Calm,-,N/A,,Scattered Clouds,0,2013-12-20 08:19:00
12:41 AM,37.4,35.6,93,29.75,1.0,SE,5.8,-,N/A,,Partly Cloudy,140,2013-12-20 08:41:00
12:48 AM,37.4,37.4,100,29.75,0.5,Calm,Calm,-,N/A,Fog,Fog,0,2013-12-20 08:48:00
12:53 AM,37.9,37.0,97,29.75,0.8,Calm,Calm,-,N/A,,Mist,0,2013-12-20 08:53:00
12:58 AM,39.2,37.4,93,29.75,1.2,SSW,3.5,-,N/A,,Partly Cloudy,200,2013-12-20 08:58:00
1:02 AM,39.2,37.4,93,29.75,3.0,SSW,3.5,-,N/A,,Partly Cloudy,200,2013-12-20 09:02:00
1:17 AM,37.4,37.4,100,29.76,1.8,Calm,Calm,-,N/A,,Clear,0,2013-12-20 09:17:00
1:28 AM,37.4,37.4,100,29.76,2.5,Calm,Calm,-,N/A,,Partly Cloudy,0,2013-12-20 09:28:00
1:42 AM,37.4,37.4,100,29.76,1.2,Calm,Calm,-,N/A,,Partly Cloudy,0,2013-12-20 09:42:00
1:49 AM,37.4,37.4,100,29.76,0.8,Calm,Calm,-,N/A,,Partly Cloudy,0,2013-12-20 09:49:00
1:53 AM,37.9,36.0,93,29.77,1.0,Calm,Calm,-,N/A,,Partly Cloudy,0,2013-12-20 09:53:00
1:58 AM,37.4,35.6,93,29.77,2.0,North,3.5,-,N/A,,Partly Cloudy,360,2013-12-20 09:58:00
2:06 AM,37.4,35.6,93,29.77,5.0,Calm,Calm,-,N/A,,Scattered Clouds,0,2013-12-20 10:06:00
2:22 AM,37.4,35.6,93,29.77,2.5,ESE,3.5,-,N/A,,Scattered Clouds,110,2013-12-20 10:22:00
2:27 AM,35.6,35.6,100,29.77,1.0,SE,4.6,-,N/A,,Scattered Clouds,140,2013-12-20 10:27:00
2:34 AM,35.6,35.6,100,29.77,0.5,ESE,3.5,-,N/A,Fog,Fog,120,2013-12-20 10:34:00
2:46 AM,37.4,35.6,93,29.77,1.2,Calm,Calm,-,N/A,,Mostly Cloudy,0,2013-12-20 10:46:00
2:53 AM,37.0,36.0,96,29.78,1.5,East,3.5,-,N/A,,Mostly Cloudy,90,2013-12-20 10:53:00
3:02 AM,37.4,35.6,93,29.78,2.5,Calm,Calm,-,N/A,,Scattered Clouds,0,2013-12-20 11:02:00
3:13 AM,37.4,35.6,93,29.77,4.0,Calm,Calm,-,N/A,,Partly Cloudy,0,2013-12-20 11:13:00
3:21 AM,35.6,35.6,100,29.78,1.5,Calm,Calm,-,N/A,,Clear,0,2013-12-20 11:21:00
3:23 AM,35.6,35.6,100,29.78,0.8,Calm,Calm,-,N/A,,Mist,0,2013-12-20 11:23:00
3:35 AM,35.6,35.6,100,29.77,0.2,Calm,Calm,-,N/A,Fog,Fog,0,2013-12-20 11:35:00
3:44 AM,35.6,33.8,93,29.78,0.5,Calm,Calm,-,N/A,Fog,Fog,0,2013-12-20 11:44:00
3:53 AM,35.1,34.0,96,29.78,0.2,Calm,Calm,-,N/A,Fog,Fog,0,2013-12-20 11:53:00
3:58 AM,35.6,33.8,93,29.77,0.5,Calm,Calm,-,N/A,Fog,Fog,0,2013-12-20 11:58:00
4:23 AM,33.8,33.8,100,29.77,0.5,SSE,3.5,-,N/A,Fog,Fog,150,2013-12-20 12:23:00
4:48 AM,35.6,33.8,93,29.77,0.2,Calm,Calm,-,N/A,Fog,Fog,0,2013-12-20 12:48:00
4:53 AM,34.0,33.1,96,29.78,0.2,Calm,Calm,-,N/A,Fog,Fog,0,2013-12-20 12:53:00
5:03 AM,33.8,33.8,100,29.77,2.0,Calm,Calm,-,N/A,,Mostly Cloudy,0,2013-12-20 13:03:00
5:15 AM,35.6,33.8,93,29.78,2.0,Calm,Calm,-,N/A,,Scattered Clouds,0,2013-12-20 13:15:00
5:20 AM,33.8,33.8,100,29.78,1.0,Calm,Calm,-,N/A,,Mist,0,2013-12-20 13:20:00
5:26 AM,35.6,33.8,93,29.78,1.2,Calm,Calm,-,N/A,,Clear,0,2013-12-20 13:26:00
5:32 AM,35.6,33.8,93,29.78,3.0,Calm,Calm,-,N/A,,Clear,0,2013-12-20 13:32:00
5:50 AM,32.0,32.0,100,29.79,1.8,Calm,Calm,-,N/A,,Clear,0,2013-12-20 13:50:00
5:53 AM,32.0,32.0,100,29.79,1.8,Calm,Calm,-,N/A,,Partly Cloudy,0,2013-12-20 13:53:00
6:06 AM,32.0,30.2,93,29.79,2.5,Calm,Calm,-,N/A,,Partly Cloudy,0,2013-12-20 14:06:00
6:10 AM,32.0,30.2,93,29.80,1.0,Calm,Calm,-,N/A,,Mist,0,2013-12-20 14:10:00
6:18 AM,33.8,32.0,93,29.80,0.8,Calm,Calm,-,N/A,,Mist,0,2013-12-20 14:18:00
6:22 AM,33.8,32.0,93,29.80,1.2,Calm,Calm,-,N/A,,Partly Cloudy,0,2013-12-20 14:22:00
6:27 AM,33.8,32.0,93,29.80,3.0,Calm,Calm,-,N/A,,Partly Cloudy,0,2013-12-20 14:27:00
6:53 AM,33.1,32.0,96,29.83,6.0,Calm,Calm,-,N/A,,Clear,0,2013-12-20 14:53:00
7:01 AM,33.8,32.0,93,29.83,1.8,Calm,Calm,-,N/A,,Clear,0,2013-12-20 15:01:00
7:13 AM,33.8,32.0,93,29.83,3.0,Calm,Calm,-,N/A,,Clear,0,2013-12-20 15:13:00
7:20 AM,33.8,32.0,93,29.83,1.8,Variable,3.5,-,N/A,,Clear,0,2013-12-20 15:20:00
7:32 AM,33.8,33.8,100,29.84,3.0,Calm,Calm,-,N/A,,Clear,0,2013-12-20 15:32:00
7:48 AM,35.6,35.6,100,29.84,2.5,Calm,Calm,-,N/A,,Clear,0,2013-12-20 15:48:00
7:53 AM,36.0,35.1,97,29.85,3.0,Calm,Calm,-,N/A,,Clear,0,2013-12-20 15:53:00
8:53 AM,43.0,41.0,93,29.86,10.0,East,4.6,-,N/A,,Clear,100,2013-12-20 16:53:00
9:53 AM,48.9,41.0,74,29.88,10.0,SSE,3.5,-,N/A,,Partly Cloudy,150,2013-12-20 17:53:00
10:53 AM,52.0,43.0,71,29.87,10.0,Calm,Calm,-,N/A,,Partly Cloudy,0,2013-12-20 18:53:00
11:53 AM,54.0,41.0,62,29.84,10.0,WSW,3.5,-,N/A,,Partly Cloudy,240,2013-12-20 19:53:00
12:53 PM,55.0,37.9,53,29.83,10.0,WNW,10.4,26.5,N/A,,Clear,290,2013-12-20 20:53:00
1:53 PM,57.0,39.0,51,29.83,10.0,WNW,8.1,-,N/A,,Scattered Clouds,300,2013-12-20 21:53:00
2:53 PM,55.9,39.0,53,29.84,10.0,West,5.8,-,N/A,,Clear,280,2013-12-20 22:53:00
3:53 PM,54.0,39.9,59,29.85,10.0,WSW,5.8,-,N/A,,Clear,240,2013-12-20 23:53:00
4:53 PM,48.9,43.0,80,29.86,10.0,Calm,Calm,-,N/A,,Clear,0,2013-12-21 00:53:00
5:53 PM,48.0,43.0,83,29.88,10.0,NE,3.5,-,N/A,,Clear,40,2013-12-21 01:53:00
6:53 PM,44.1,41.0,89,29.90,10.0,Calm,Calm,-,N/A,,Scattered Clouds,0,2013-12-21 02:53:00
7:15 PM,44.6,41.0,87,29.90,10.0,Calm,Calm,-,N/A,,Mostly Cloudy,0,2013-12-21 03:15:00
7:23 PM,44.6,42.8,93,29.91,10.0,Calm,Calm,-,N/A,,Scattered Clouds,0,2013-12-21 03:23:00
7:32 PM,44.6,42.8,93,29.91,10.0,Calm,Calm,-,N/A,,Mostly Cloudy,0,2013-12-21 03:32:00
7:53 PM,45.0,43.0,93,29.93,9.0,Calm,Calm,-,N/A,,Overcast,0,2013-12-21 03:53:00
8:53 PM,46.0,43.0,89,29.94,9.0,Calm,Calm,-,N/A,,Mostly Cloudy,0,2013-12-21 04:53:00
9:01 PM,44.6,42.8,93,29.94,9.0,Calm,Calm,-,N/A,,Mostly Cloudy,0,2013-12-21 05:01:00
9:53 PM,44.1,42.1,93,29.93,6.0,Calm,Calm,-,N/A,,Clear,0,2013-12-21 05:53:00
10:53 PM,43.0,41.0,93,29.95,7.0,NE,4.6,-,N/A,,Clear,40,2013-12-21 06:53:00
11:10 PM,42.8,41.0,93,29.96,6.0,Calm,Calm,-,N/A,,Mostly Cloudy,0,2013-12-21 07:10:00
11:27 PM,41.0,39.2,93,29.95,2.0,East,3.5,-,N/A,,Mostly Cloudy,80,2013-12-21 07:27:00
11:38 PM,41.0,39.2,93,29.95,1.8,SE,3.5,-,N/A,,Scattered Clouds,130,2013-12-21 07:38:00
11:42 PM,41.0,39.2,93,29.95,0.8,ESE,3.5,-,N/A,,Mist,120,2013-12-21 07:42:00
11:53 PM,39.9,39.0,97,29.94,0.5,Calm,Calm,-,N/A,Fog,Fog,0,2013-12-21 07:53:00